Probability
0 0 0 0 0 0 3 3 0 0 0 0 0 0 0 3 0 0 0 0 0 52 97 100 100 100 100 100 94 97 97 97 100 100 100 97 94 90 90 90 94 90 87 90 94 94 84 94 84
0 0 0 0 0 0 0 0 0 0 0 0 0 0 0 16 19 0 0 0 3 65 97 100 100 100 100 100 97 97 97 100 100 100 100 100 97 94 84 81 81 84 77 71 71 71 55 52 61
0 0 0 0 0 0 0 0 0 0 0 0 0 0 0 3 42 10 0 3 13 74 87 100 100 100 100 100 97 97 97 100 100 100 100 100 94 94 90 68 61 55 52 48 45 32 32 39 35
0 0 0 0 0 0 0 0 0 0 0 0 0 0 0 0 26 10 0 6 19 68 90 100 100 100 100 100 100 100 100 100 100 100 100 100 100 100 94 87 77 77 58 45 42 32 29 29 26
0 0 0 0 0 0 0 0 0 0 0 0 0 0 0 6 29 0 0 6 16 71 94 100 100 100 100 100 100 100 100 100 100 100 100 100 100 100 100 94 94 87 74 74 61 48 42 45 35
0 0 0 0 0 0 0 0 0 0 0 0 0 0 0 23 16 0 0 3 23 74 94 100 100 100 100 100 100 100 100 100 100 100 100 100 100 100 100 97 97 94 94 90 94 84 77 74 61
0 0 0 0 0 0 0 0 0 0 0 0 0 0 0 16 13 3 0 0 23 68 94 100 100 100 100 100 100 100 100 100 100 100 100 100 100 100 100 100 97 97 97 97 97 100 100 100 100
0 0 0 0 0 0 0 0 0 0 0 0 0 0 0 3 26 6 10 13 32 45 81 100 100 100 100 100 100 100 100 100 100 100 100 100 100 100 100 100 100 100 100 100 100 100 100 100 100
0 0 0 0 0 0 0 0 0 0 0 0 0 0 0 3 19 26 42 45 35 32 65 97 100 100 100 100 100 100 100 100 100 100 100 100 100 100 100 100 100 100 100 100 100 100 100 100 100
0 0 0 0 0 0 0 0 0 3 0 0 0 0 0 6 16 32 55 68 55 39 29 74 90 94 94 97 100 100 100 100 100 100 100 100 97 97 97 100 100 100 100 100 100 100 100 100 97
0 0 0 0 0 0 0 0 0 0 3 0 0 0 3 6 10 19 48 71 71 48 26 35 65 84 84 71 87 100 100 100 100 100 97 97 97 97 97 97 100 100 100 100 100 100 100 97 97
0 0 0 0 0 0 0 0 0 0 0 0 0 0 3 3 3 6 23 58 81 61 26 23 35 58 61 52 68 84 97 97 100 97 97 97 97 97 90 90 94 90 97 100 97 94 90 94 94
0 0 0 0 0 0 0 0 0 0 0 3 0 0 3 3 3 3 10 39 68 68 48 29 39 55 55 61 61 74 74 81 90 90 94 97 94 94 87 81 84 84 74 81 77 84 87 87 90
0 0 0 0 0 0 0 3 3 3 3 3 0 0 3 3 3 0 3 26 48 55 42 45 61 65 71 77 77 84 84 87 97 97 90 94 94 87 71 68 61 58 55 52 61 61 61 55 71
0 0 0 0 0 0 3 3 3 3 10 13 16 10 19 16 13 6 10 19 35 32 45 61 68 65 71 87 87 87 90 90 84 84 87 90 90 87 68 58 58 48 48 48 39 32 26 19 26
0 0 0 0 0 0 3 3 3 6 10 19 23 26 26 16 16 23 23 29 19 23 39 52 61 61 58 68 74 81 81 74 74 81 77 71 71 68 65 45 39 39 42 29 23 26 23 19 19
0 0 0 0 0 0 3 3 6 6 29 32 32 32 32 26 26 26 39 42 32 26 32 32 35 45 48 65 58 42 48 39 35 35 35 45 48 48 35 23 19 16 16 13 13 19 16 10 6
0 0 0 0 3 3 3 3 6 10 19 26 35 42 32 35 39 32 35 29 32 32 26 23 29 35 35 35 35 39 35 23 19 23 26 29 26 29 16 10 10 10 6 6 6 6 3 3 0
0 0 0 0 3 3 3 10 13 19 23 32 39 45 39 32 29 29 23 26 16 16 13 16 19 26 29 23 19 23 26 16 13 16 13 13 16 16 10 6 3 3 3 3 6 6 6 3 3
0 0 0 0 0 3 6 13 16 29 26 35 29 32 26 32 19 16 16 16 16 6 10 13 10 10 10 19 16 13 13 16 10 10 6 10 6 3 0 3 0 3 3 0 0 6 6 0 3
0 0 0 0 0 3 3 13 23 23 23 29 32 26 19 16 13 13 10 6 10 19 16 13 6 6 6 10 6 6 6 6 3 0 3 3 3 3 0 0 0 0 0 0 0 0 0 0 0
0 0 0 0 0 0 0 0 6 16 16 19 16 13 13 13 6 3 6 6 3 6 6 3 3 0 0 0 3 3 10 6 6 3 0 0 0 0 0 0 0 0 0 0 0 0 0 0 0
0 0 0 0 0 0 0 0 0 3 13 10 6 6 3 0 0 0 3 0 0 0 0 0 3 3 3 3 3 0 0 3 0 3 3 0 0 0 0 0 0 0 0 0 0 0 0 0 0
0 0 0 0 0 0 0 0 0 3 3 6 3 6 3 0 0 0 0 0 0 0 0 0 0 0 0 0 0 0 0 0 0 0 0 0 0 0 0 0 0 3 0 0 0 0 0 0 0
0 0 0 0 0 0 0 0 0 6 10 6 6 3 3 0 0 0 0 0 0 0 0 0 0 0 0 0 0 0 0 0 0 0 0 0 0 0 0 0 0 0 0 0 0 0 0 0 0
0 0 0 0 0 0 0 0 0 3 3 3 3 3 3 0 0 0 0 0 0 0 0 0 0 0 0 0 0 0 0 0 0 0 0 0 0 0 0 0 0 0 0 0 0 0 0 0 0
0 0 0 0 0 0 0 0 0 0 0 0 0 0 0 0 0 0 0 0 0 0 0 0 0 0 0 0 0 0 0 0 0 0 0 0 0 0 0 0 0 0 0 0 0 0 0 0 0
0 0 0 0 0 0 0 0 0 0 0 0 0 0 0 0 0 0 0 0 0 0 0 0 0 0 0 0 0 0 0 0 0 0 0 0 0 0 0 0 0 0 0 0 0 0 0 0 0
0 0 0 0 0 0 0 0 0 0 0 0 0 0 0 0 0 0 0 0 0 0 0 0 0 0 0 0 0 0 0 0 0 0 0 0 0 0 0 0 0 0 0 0 0 0 0 0 0
0 0 0 0 0 0 0 0 0 0 0 0 0 0 0 0 0 0 0 0 0 0 0 0 0 0 0 0 0 0 0 0 0 0 0 0 0 0 0 0 0 0 0 0 0 0 0 0 0
Height
5934 5933 5933 5933 5933 5932 5930 5930 5930 5932 5932 5931 5930 5929 5929 5929 5929 5930 5928 5926 5925 5924 5924 5923 5922 5922 5921 5920 5920 5919 5918 5918 5917 5916 5915 5914 5912 5911 5910 5908 5907 5905 5904 5902 5901 5899 5898 5897 5896
5934 5934 5934 5933 5932 5930 5930 5929 5928 5930 5931 5931 5930 5930 5929 5928 5928 5927 5926 5925 5925 5924 5923 5923 5922 5921 5921 5920 5919 5918 5918 5917 5916 5915 5914 5913 5912 5910 5909 5908 5906 5905 5903 5902 5901 5899 5898 5897 5896
5934 5933 5933 5932 5931 5930 5930 5928 5927 5925 5929 5930 5930 5930 5929 5928 5927 5927 5926 5925 5925 5924 5923 5922 5921 5921 5920 5919 5918 5918 5917 5916 5915 5914 5913 5912 5911 5909 5908 5907 5906 5904 5903 5901 5900 5898 5897 5896 5895
5933 5933 5933 5932 5930 5929 5928 5927 5925 5925 5926 5928 5929 5929 5928 5928 5926 5926 5925 5924 5924 5923 5922 5921 5920 5920 5919 5918 5917 5916 5915 5914 5913 5912 5911 5910 5909 5908 5906 5905 5904 5903 5902 5900 5899 5898 5896 5895 5894
5932 5932 5932 5931 5929 5928 5927 5926 5924 5924 5924 5926 5927 5927 5927 5926 5925 5924 5924 5923 5922 5922 5921 5920 5919 5918 5917 5916 5915 5914 5913 5912 5911 5910 5909 5908 5906 5905 5904 5903 5902 5901 5900 5899 5897 5896 5895 5894 5893
5931 5931 5931 5929 5927 5926 5925 5925 5923 5922 5922 5924 5925 5926 5926 5925 5923 5923 5923 5922 5921 5920 5920 5919 5918 5917 5916 5914 5913 5912 5911 5909 5908 5907 5906 5904 5903 5902 5901 5900 5899 5898 5897 5896 5895 5894 5893 5892 5891
5929 5929 5929 5927 5925 5924 5924 5923 5923 5921 5920 5922 5923 5923 5924 5924 5923 5921 5921 5921 5920 5919 5918 5917 5916 5914 5913 5912 5910 5909 5907 5906 5904 5903 5902 5900 5899 5898 5897 5896 5895 5894 5894 5893 5892 5891 5890 5889 5888
5925 5927 5925 5923 5921 5921 5921 5921 5920 5919 5918 5919 5920 5921 5921 5922 5921 5920 5918 5918 5918 5917 5916 5915 5913 5912 5910 5908 5907 5905 5903 5902 5900 5899 5897 5896 5895 5894 5893 5892 5891 5890 5889 5889 5888 5887 5886 5885 5885
5921 5924 5922 5920 5918 5918 5918 5918 5918 5917 5916 5916 5917 5918 5918 5918 5918 5919 5918 5916 5916 5915 5913 5912 5910 5908 5906 5904 5903 5901 5899 5898 5896 5894 5893 5891 5890 5889 5888 5887 5886 5885 5884 5884 5883 5882 5881 5881 5880
5918 5920 5919 5917 5915 5915 5915 5916 5915 5914 5913 5913 5914 5915 5914 5915 5915 5917 5917 5915 5913 5912 5910 5908 5906 5904 5902 5900 5898 5896 5895 5893 5891 5889 5888 5886 5885 5883 5882 5881 5880 5880 5879 5878 5878 5877 5876 5875 5875
5912 5915 5915 5913 5912 5911 5912 5913 5912 5911 5911 5911 5911 5911 5911 5912 5912 5912 5914 5913 5910 5908 5906 5903 5901 5899 5897 5895 5893 5891 5889 5888 5886 5884 5882 5881 5879 5878 5877 5876 5875 5874 5873 5873 5872 5871 5870 5870 5869
5908 5909 5909 5908 5907 5907 5909 5910 5910 5908 5908 5907 5907 5907 5907 5907 5907 5906 5907 5908 5906 5903 5900 5898 5895 5893 5891 5890 5888 5886 5884 5882 5880 5879 5877 5875 5873 5872 5871 5871 5870 5869 5868 5867 5866 5865 5865 5864 5864
5904 5905 5904 5905 5904 5904 5905 5906 5907 5906 5905 5904 5903 5902 5902 5902 5902 5901 5900 5900 5899 5897 5894 5891 5888 5886 5885 5883 5882 5880 5878 5877 5875 5873 5871 5869 5868 5867 5866 5865 5864 5863 5862 5861 5861 5860 5859 5859 5858
5899 5899 5901 5902 5902 5901 5901 5901 5902 5903 5902 5900 5898 5896 5896 5896 5896 5896 5894 5893 5891 5889 5887 5885 5882 5879 5877 5875 5874 5872 5871 5870 5868 5867 5865 5863 5862 5861 5860 5859 5858 5857 5857 5856 5855 5854 5854 5853 5853
5894 5895 5896 5896 5896 5896 5895 5895 5897 5898 5897 5895 5893 5892 5891 5891 5890 5889 5887 5885 5883 5880 5877 5876 5873 5870 5868 5866 5865 5864 5863 5862 5860 5859 5857 5856 5855 5854 5853 5853 5852 5851 5850 5850 5850 5849 5848 5848 5848
5889 5890 5891 5890 5890 5889 5890 5890 5893 5892 5891 5890 5889 5887 5885 5884 5883 5881 5880 5878 5874 5870 5867 5865 5861 5856 5854 5854 5854 5854 5854 5853 5852 5850 5849 5848 5847 5847 5846 5846 5845 5844 5844 5844 5844 5843 5843 5843 5843
5884 5885 5885 5886 5885 5884 5884 5885 5887 5886 5886 5885 5884 5882 5881 5880 5878 5876 5873 5869 5865 5861 5856 5849 5847 5841 5841 5843 5843 5842 5844 5843 5842 5842 5842 5841 5840 5839 5839 5839 5839 5838 5838 5838 5838 5838 5838 5838 5838
5880 5881 5881 5881 5881 5881 5880 5881 5881 5881 5880 5880 5879 5878 5876 5874 5872 5870 5866 5861 5857 5852 5847 5840 5838 5832 5834 5835 5832 5835 5834 5835 5835 5834 5834 5834 5833 5833 5833 5833 5833 5833 5833 5833 5833 5833 5833 5833 5833
5876 5876 5876 5876 5877 5877 5876 5876 5876 5876 5875 5874 5873 5872 5870 5868 5866 5863 5858 5854 5850 5845 5840 5832 5826 5828 5829 5830 5827 5827 5827 5827 5828 5826 5827 5827 5826 5826 5826 5826 5826 5827 5827 5827 5827 5827 5827 5827 5828
5872 5872 5872 5873 5872 5873 5873 5873 5872 5870 5869 5868 5867 5866 5864 5862 5860 5857 5852 5848 5843 5840 5835 5829 5825 5826 5826 5826 5824 5822 5821 5820 5820 5820 5820 5820 5820 5819 5819 5819 5819 5820 5820 5821 5821 5821 5821 5821 5822
5869 5869 5868 5869 5868 5868 5869 5869 5868 5866 5864 5864 5863 5861 5858 5856 5854 5850 5847 5843 5838 5835 5831 5828 5825 5822 5821 5820 5817 5816 5815 5814 5814 5814 5814 5813 5813 5813 5812 5812 5812 5813 5813 5813 5814 5814 5815 5815 5815
5866 5866 5865 5865 5865 5865 5866 5864 5863 5860 5859 5858 5856 5854 5852 5849 5847 5843 5840 5836 5832 5829 5826 5822 5820 5817 5815 5813 5810 5809 5808 5807 5807 5807 5807 5806 5806 5806 5804 5804 5804 5804 5805 5806 5806 5807 5808 5808 5808
5864 5863 5862 5861 5860 5861 5861 5859 5858 5855 5852 5850 5849 5847 5844 5842 5839 5836 5833 5830 5826 5823 5820 5816 5813 5810 5808 5807 5805 5803 5801 5800 5800 5799 5799 5798 5798 5797 5797 5796 5796 5795 5796 5797 5798 5798 5799 5800 5801
5862 5861 5859 5858 5858 5858 5856 5854 5853 5849 5846 5844 5842 5839 5836 5834 5831 5828 5826 5823 5819 5815 5812 5809 5806 5803 5800 5798 5796 5794 5793 5792 5791 5790 5789 5789 5788 5787 5787 5787 5787 5787 5787 5788 5789 5789 5790 5791 5793
5860 5859 5857 5856 5855 5854 5852 5850 5849 5845 5841 5838 5835 5832 5830 5828 5824 5821 5818 5815 5811 5807 5803 5799 5796 5793 5790 5787 5785 5783 5782 5781 5780 5779 5778 5777 5776 5775 5776 5776 5777 5777 5778 5778 5779 5780 5781 5782 5783
5858 5857 5856 5854 5851 5850 5848 5846 5845 5840 5837 5834 5830 5827 5823 5820 5817 5814 5810 5806 5802 5798 5794 5790 5785 5781 5777 5774 5771 5769 5767 5766 5765 5764 5763 5763 5762 5762 5762 5763 5764 5765 5766 5767 5768 5769 5771 5771 5773
5857 5855 5853 5851 5849 5847 5844 5842 5840 5836 5832 5828 5824 5820 5815 5811 5807 5803 5799 5794 5790 5786 5781 5777 5773 5768 5764 5759 5756 5753 5750 5748 5747 5746 5746 5746 5746 5746 5746 5747 5748 5750 5752 5754 5756 5758 5759 5760 5762
5855 5853 5851 5848 5845 5843 5840 5837 5835 5830 5826 5822 5816 5812 5807 5801 5796 5791 5785 5780 5775 5770 5764 5759 5755 5751 5746 5742 5739 5735 5732 5730 5728 5727 5726 5726 5726 5727 5728 5730 5731 5733 5736 5738 5741 5744 5746 5748 5750
5853 5851 5848 5845 5842 5839 5835 5835 5830 5825 5820 5814 5809 5803 5797 5792 5786 5780 5774 5768 5761 5754 5747 5741 5734 5729 5724 5720 5716 5713 5711 5709 5707 5705 5704 5704 5705 5706 5708 5710 5712 5715 5718 5721 5724 5728 5731 5735 5738
5850 5848 5845 5843 5839 5835 5832 5831 5823 5818 5812 5806 5800 5793 5787 5780 5774 5767 5760 5753 5746 5738 5730 5723 5715 5709 5702 5697 5692 5688 5684 5682 5681 5681 5680 5681 5682 5684 5686 5688 5691 5694 5698 5702 5706 5710 5715 5719 5723
Wind_Speed
11 10 10 9 8 7 4 4 3 1 3 4 5 6 6 4 1 1 1 2 2 1 2 2 3 3 4 4 4 4 5 5 6 7 7 8 8 9 10 10 11 11 11 11 10 10 10 10 10
10 8 6 7 6 5 3 2 2 3 3 1 1 3 3 3 3 2 1 3 3 3 3 3 4 4 4 5 5 5 5 5 6 6 7 7 8 9 9 9 10 10 10 10 10 10 10 10 9
8 6 4 4 4 2 1 1 1 3 4 3 2 2 2 3 4 4 3 4 4 4 4 4 4 5 5 6 6 6 6 6 6 7 7 8 8 9 9 10 10 10 10 10 10 10 10 10 9
8 8 6 6 5 2 4 3 2 2 4 5 5 4 3 5 6 5 5 6 5 5 4 5 5 5 6 6 7 7 7 7 7 8 8 9 9 9 10 10 10 10 10 10 10 10 10 10 10
11 9 8 8 9 6 7 7 4 4 5 7 7 6 5 5 7 6 6 6 6 6 6 6 6 7 7 7 8 8 9 9 9 10 10 11 11 11 11 11 11 11 11 11 11 11 11 11 11
13 10 10 11 11 7 8 8 7 9 9 10 9 8 7 7 8 8 8 7 7 7 7 8 8 9 9 10 10 10 11 11 12 12 13 13 13 13 13 13 13 13 13 14 14 14 13 13 13
15 12 10 10 9 7 9 10 10 10 10 11 11 10 9 8 9 9 9 9 9 9 10 11 11 11 11 12 12 13 13 14 14 15 15 15 16 16 16 16 16 16 16 16 16 16 16 16 16
17 15 13 11 10 7 7 8 9 11 12 12 12 12 13 12 10 10 11 11 11 11 12 13 13 13 13 13 14 14 15 15 16 17 17 17 18 18 18 18 18 18 18 19 19 19 19 19 19
18 18 17 15 13 10 6 7 10 11 13 14 13 14 16 16 15 12 12 14 14 14 15 15 16 15 15 15 15 15 16 16 17 18 18 19 20 20 20 21 21 21 21 21 21 21 22 22 22
19 19 20 21 18 16 12 10 11 13 15 16 16 18 20 19 18 15 14 16 18 19 19 19 18 18 17 17 17 17 17 18 19 19 20 21 21 22 22 22 22 22 22 22 22 22 23 23 24
20 20 24 25 23 21 19 16 15 18 18 18 19 21 23 21 21 21 19 19 22 23 24 24 22 21 20 20 20 20 20 20 20 21 21 22 22 22 23 23 23 23 23 23 23 23 23 23 23
21 21 26 28 28 26 24 22 20 21 23 23 23 26 27 27 27 27 25 23 25 26 26 26 25 24 23 23 23 23 23 22 22 22 23 24 24 24 23 23 23 23 24 24 24 24 23 22 23
20 21 25 27 29 29 28 26 25 24 25 26 28 30 31 31 30 29 29 29 28 27 27 28 29 28 27 26 26 25 24 24 23 23 24 24 25 25 25 24 24 23 23 24 24 24 23 22 21
20 20 20 21 23 27 29 29 29 27 27 29 31 33 34 33 32 31 32 32 32 31 30 31 33 33 30 29 28 26 26 25 24 25 26 25 24 25 25 25 24 23 23 22 22 22 21 20 20
19 18 17 17 20 22 27 28 27 26 26 28 31 33 35 36 36 37 36 36 36 35 35 35 36 36 34 32 30 29 28 27 27 28 27 25 24 25 25 25 24 23 22 21 21 20 19 17 17
18 16 14 13 16 19 23 23 21 23 24 26 30 33 35 37 39 40 40 38 39 41 42 40 38 37 35 34 33 31 30 29 28 28 26 25 25 25 24 24 24 23 22 21 20 19 18 17 16
16 15 14 13 13 15 17 17 17 20 23 27 30 33 35 37 40 42 43 42 42 41 42 41 41 37 35 34 31 30 30 28 27 27 26 26 25 24 23 24 23 22 21 20 20 19 18 17 16
14 14 13 13 12 13 15 17 18 22 25 29 31 33 36 38 40 41 43 44 42 40 39 39 37 35 32 32 30 28 28 29 28 27 26 24 25 25 24 24 23 22 21 21 21 20 19 18 17
12 13 14 15 14 15 17 19 21 25 28 31 34 35 36 37 37 38 38 39 39 39 38 36 33 30 30 29 29 28 27 27 27 26 25 24 24 24 24 24 23 23 22 21 21 21 20 19 18
11 15 18 19 20 20 21 22 25 28 30 33 35 36 36 36 36 37 37 37 36 35 34 33 31 30 28 29 28 29 28 27 27 27 26 25 25 25 25 24 24 24 23 22 22 21 21 21 20
12 14 17 20 23 26 26 26 28 31 33 33 33 33 33 34 34 34 36 35 33 34 33 32 32 30 29 28 30 30 28 27 27 26 26 25 26 26 25 25 25 25 24 24 23 23 22 22 22
9 12 14 17 20 24 25 26 27 29 31 31 31 31 31 31 32 33 33 32 30 32 32 32 31 31 30 30 29 27 27 27 26 26 26 26 26 27 27 26 27 27 26 26 25 25 24 24 24
7 10 12 13 14 15 18 21 23 25 27 27 28 29 29 29 31 30 30 31 31 32 33 33 33 34 34 33 32 32 31 30 30 30 30 30 29 29 29 29 29 29 29 29 29 28 27 27 27
8 9 9 10 11 12 14 17 19 21 21 22 24 26 27 27 27 27 30 32 33 34 36 36 37 38 38 38 38 37 37 36 35 35 35 34 34 34 33 32 31 31 32 32 32 31 30 30 30
9 9 8 8 10 12 15 17 18 18 19 21 22 23 25 27 27 28 30 34 36 38 40 41 43 44 44 44 45 45 44 44 43 43 42 42 41 40 39 38 36 36 36 36 35 35 34 34 33
10 11 12 13 14 15 17 18 19 21 23 26 28 29 31 30 30 33 35 38 41 43 44 46 48 49 50 51 51 51 51 51 50 50 50 49 48 48 47 45 43 42 41 40 39 38 38 38 37
11 13 14 16 16 17 19 21 22 25 28 30 32 34 35 36 38 40 42 44 46 48 49 50 51 52 53 54 55 56 55 55 55 55 55 55 54 54 53 53 51 49 47 46 45 43 42 42 41
14 14 15 16 18 20 23 24 26 28 31 34 37 38 40 43 44 46 48 50 52 54 55 56 56 57 57 57 58 59 59 59 59 59 59 59 59 58 58 58 57 56 54 52 51 48 46 45 44
13 14 16 17 19 23 26 28 30 33 35 38 40 41 43 45 48 50 52 54 56 58 60 61 62 63 63 63 64 64 63 63 63 63 63 63 62 62 62 61 60 60 59 58 56 54 52 50 47
15 16 17 18 21 24 29 32 34 37 39 41 43 45 48 50 53 55 56 58 60 62 64 65 67 68 69 69 69 70 69 69 68 68 68 68 67 66 65 64 64 63 63 62 60 58 56 53 51
Wind_Direction
139 143 148 145 151 159 135 58 39 23 330 325 314 330 3 13 3 237 149 188 216 257 295 317 323 325 326 331 336 343 347 346 344 345 346 347 347 346 346 345 346 349 353 357 1 5 8 11 14
151 155 163 156 167 174 150 63 15 35 44 39 300 312 345 351 315 280 240 234 238 253 271 292 301 306 309 313 316 318 324 327 328 331 333 333 333 333 333 332 333 335 339 342 346 350 354 357 1
171 177 184 184 190 200 285 230 308 17 13 5 316 301 312 303 291 278 271 256 252 256 271 287 293 296 298 300 302 304 307 309 311 315 318 320 320 320 321 320 320 321 323 326 329 333 337 341 345
197 202 214 231 240 294 323 293 274 356 350 333 317 309 295 285 281 282 282 276 272 272 279 285 287 289 289 292 293 295 297 298 300 303 307 309 309 309 308 308 307 307 308 310 312 316 319 322 326
214 223 237 260 277 304 315 304 292 313 320 313 308 307 296 285 283 287 288 286 286 290 293 292 290 287 284 282 282 283 285 287 290 293 296 299 300 299 298 297 296 295 296 297 297 299 302 305 309
220 229 248 271 283 296 307 304 302 309 304 301 296 300 295 290 289 289 287 289 291 296 298 296 294 290 286 282 280 279 278 280 282 284 286 289 291 290 290 290 287 286 285 286 287 287 289 291 294
222 222 234 255 270 284 303 306 299 290 285 287 289 291 289 283 286 288 286 288 293 298 299 298 296 294 290 286 282 280 279 279 279 279 280 282 283 283 283 283 282 281 280 279 279 280 281 282 283
226 218 216 234 252 280 304 299 286 282 285 284 288 290 289 279 278 281 283 286 292 298 299 297 296 295 292 289 286 283 280 280 280 280 280 280 280 280 279 280 280 279 279 279 278 278 277 277 277
233 221 217 224 238 252 261 267 267 272 281 285 289 291 293 287 282 277 282 288 291 295 298 297 296 294 292 290 289 287 285 284 284 284 283 282 280 279 279 280 280 280 280 279 279 278 277 277 276
236 224 219 228 236 241 244 247 261 268 276 282 288 293 293 288 286 285 283 285 291 295 297 295 294 293 292 291 291 291 289 289 289 288 286 284 283 282 281 281 281 280 279 279 279 278 277 277 276
238 226 222 228 235 239 242 245 247 260 270 277 285 290 292 289 288 288 284 284 289 294 295 292 290 290 291 292 292 293 292 293 292 291 289 287 285 284 284 283 283 283 282 281 280 279 277 276 278
245 234 229 231 237 241 243 245 247 256 267 276 284 287 288 289 287 287 287 287 288 291 291 289 287 288 289 291 292 294 293 294 294 293 291 289 287 285 284 283 282 280 280 281 282 280 278 276 278
253 245 242 243 246 250 251 250 251 255 265 273 278 280 282 284 285 286 287 289 288 288 288 285 285 285 285 287 290 291 291 290 290 290 289 286 286 285 283 281 279 278 277 278 279 279 278 276 277
256 254 253 252 250 251 254 255 255 255 261 267 272 275 278 282 283 284 286 288 286 284 282 283 284 281 280 281 282 282 283 282 284 286 284 280 280 281 280 279 278 278 277 276 276 275 273 273 274
254 255 255 253 249 247 249 252 255 256 257 263 268 273 277 281 283 284 285 286 285 283 281 279 277 275 275 274 274 272 274 276 278 279 279 280 279 277 277 278 277 277 276 274 272 270 266 266 269
249 247 241 243 243 244 247 252 251 254 255 261 267 271 275 279 282 285 286 285 284 282 282 277 274 272 269 271 271 266 268 273 277 278 279 281 279 279 278 278 278 277 276 273 271 268 266 267 268
245 237 230 227 234 235 241 247 249 256 259 261 265 269 273 277 281 284 286 284 285 284 283 277 275 273 269 268 264 262 265 274 281 276 279 280 279 278 279 278 278 276 273 272 270 269 268 267 267
242 237 229 226 229 232 236 245 250 254 257 261 266 271 275 278 282 285 288 288 286 290 284 280 276 277 275 272 264 264 266 273 280 281 280 281 282 280 278 277 275 273 271 269 268 267 267 265 265
237 229 227 231 231 235 239 243 246 249 252 258 265 271 277 281 285 287 290 289 287 291 288 285 287 286 284 283 277 275 277 283 285 286 288 286 282 278 276 273 270 269 268 267 266 266 265 263 262
237 232 231 234 235 235 236 238 244 249 254 259 265 272 277 280 286 291 294 297 293 294 290 294 297 296 292 293 293 290 286 287 288 289 287 286 283 278 273 269 266 265 264 264 264 265 265 264 263
239 242 243 242 239 244 248 250 253 257 261 265 270 274 278 281 287 291 294 297 297 298 300 301 301 301 300 297 296 295 288 286 285 285 283 281 280 276 271 268 265 262 261 261 262 263 263 265 265
254 256 260 256 251 250 255 261 263 267 269 272 273 277 279 281 283 286 292 298 296 297 300 302 301 300 301 300 300 296 288 286 284 284 280 277 275 273 270 268 266 263 261 261 261 261 263 265 267
294 286 282 274 264 261 266 274 279 282 280 278 277 278 278 279 282 283 290 295 296 297 298 300 300 300 300 298 294 294 292 289 285 281 279 277 274 271 269 266 265 263 261 261 261 261 262 264 267
327 316 301 288 280 276 280 287 295 295 291 287 282 280 280 284 284 286 290 293 295 297 298 299 298 297 295 293 291 289 287 285 282 279 277 275 272 270 267 265 263 262 262 262 262 263 264 265 267
336 334 323 307 303 303 301 305 312 312 313 315 308 301 298 301 295 291 292 295 298 299 299 299 298 296 294 292 290 287 285 282 279 276 274 272 270 269 266 264 262 262 261 260 261 262 264 265 267
331 331 331 328 327 323 318 318 319 319 319 321 321 318 311 307 302 299 296 296 297 297 296 295 294 293 291 290 288 286 283 281 279 276 274 271 269 268 266 265 263 260 259 259 260 260 261 263 265
317 317 319 321 322 323 323 322 321 319 320 319 318 316 312 310 308 305 303 301 298 297 296 294 293 291 289 287 285 284 282 280 277 275 273 271 269 266 265 264 262 261 259 258 258 259 259 261 263
313 313 313 316 318 322 323 325 325 322 321 319 317 315 313 312 311 308 307 305 303 301 300 297 295 292 289 286 284 282 280 278 276 274 272 270 268 266 264 262 261 260 259 258 257 256 257 258 260
315 311 312 318 319 320 322 323 324 323 322 320 318 316 315 313 312 310 308 307 305 303 301 299 297 294 292 289 286 283 279 276 274 272 271 269 267 265 263 262 260 260 259 258 257 256 255 256 257
317 317 319 322 322 321 321 322 323 323 322 320 319 318 317 315 313 312 310 308 306 304 302 300 298 295 293 290 288 285 282 278 275 271 269 267 265 264 262 261 259 258 258 257 256 256 255 254 254